Flag for Iran Weather past 2 weeks in Behbahan, Iran

Now
106 °F

Sunny.


Feels Like: 99 °F
Forecast: 85 / 110 °F
Wind: No wind

Location: Gach Saran Du Gunbadan

Current Time: Aug 31, 2015 at 11:50:23 AM

Latest Report: Aug 31, 2015 at 11:30 AM


Visibility: 10 mi

Pressure: 29.83 "Hg

Humidity: 7%

Dew point: 28 °F

Location of BehbahanLocation

Historic Weather in Behbahan — Graph

°F

Behbahan temperature yesterday

Maximum temperature yesterday: 111 °F (at 1:30 PM)
Minimum temperature yesterday: 81 °F (at 6:30 AM)
Average temperature yesterday: 98 °F

Past Weeks' High & Low Weather Summary

 TemperatureHumidityPressure
High113 °F (Aug 21, 2:30 PM)70% (Aug 21, 6:30 AM)30.12 "Hg (Aug 21, 6:30 AM)
Low66 °F (Aug 28, 3:30 AM)2% (Aug 16, 3:30 PM)29.68 "Hg (Aug 17, 4:30 PM)
Average96 °F24%29.76 "Hg
* Reported Aug 16 10:30 AM — Aug 31 10:30 AM, Behbahan, Weather by CustomWeather, © 2015

Note: Actual official high and low records may vary slightly from our data, if they occured in-between our weather recording intervals... More about our weather records

Advertising

Behbahan weather history for previous 24 hours

 ConditionsComfort  
Time TempWeatherWind HumidityBarometerVisibility
10:30 AM
Mon, Aug 31
100 °FSunny.No wind10%29.83 "Hg10 mi
9:30 AM95 °FSunny.No wind18%29.83 "Hg10 mi
8:30 AM88 °FSunny.2 mph24%29.83 "Hg10 mi
7:30 AM79 °FClear.No wind32%29.80 "Hg10 mi
6:30 AM81 °FClear.2 mph28%29.80 "Hg10 mi
5:30 AM81 °FClear.No wind26%29.80 "Hg10 mi
4:30 AM81 °FClear.2 mph24%29.77 "Hg10 mi
3:30 AM84 °FClear.2 mph20%29.77 "Hg10 mi
2:30 AM88 °FClear.2 mph12%29.80 "Hg10 mi
1:30 AM90 °FClear.5 mph9%29.80 "Hg10 mi
12:30 AM93 °FClear.5 mph8%29.80 "Hg10 mi
11:30 PM
Sun, Aug 30
95 °FClear.5 mph8%29.80 "Hg10 mi
10:30 PM97 °FClear.9 mph8%29.80 "Hg10 mi
9:30 PM100 °FClear.9 mph8%29.77 "Hg10 mi
8:30 PM100 °FSunny.7 mph8%29.77 "Hg10 mi
7:30 PM106 °FSunny.14 mph6%29.74 "Hg10 mi
6:30 PM108 °FSunny.16 mph5%29.74 "Hg10 mi
5:30 PM109 °FSunny.16 mph5%29.74 "Hg10 mi
4:30 PM111 °FSunny.12 mph5%29.74 "Hg10 mi
3:30 PM111 °FSunny.12 mph5%29.74 "Hg10 mi
2:30 PM111 °FSunny.14 mph5%29.77 "Hg10 mi
1:30 PM111 °FSunny.14 mph6%29.80 "Hg10 mi
12:30 PM108 °FSunny.12 mph6%29.80 "Hg10 mi
11:30 AM104 °FSunny.No wind8%29.83 "Hg10 mi
Weather by CustomWeather, © 2015

See weather overviewHow to use our weather pages